Volver al catálogo

STARLINK-33852

ActivoComunicacionesVLEO
NORAD 63644·PAYLOAD·🇺🇸 United States

Lanzado Apr 25, 2025 desde Cape Canaveral Space Force Station

Loading…

Próximos Pases (próximas 24 horas)

TLE

ActualizadoSource: CelesTrak SupGP

Época: Sep 15, 2026, 02:44 UTC

1 63644C 25083L   26258.11437500  .00007769  00000+0  28140-3 0  2589
2 63644  43.0039  15.6872 0001506 267.9431 106.8820 15.27575610    12

Sigue STARLINK-33852 en tiempo real con AllMySat

Download on the App Store